Location: Auna di Sotto
(46.5167°N, 11.4333°E)
Time: 23:56:45
(UTC+00:00)

Daily predictions for brighter satellites

Satellite Brightness Start Highest point End
(mag) Time Altitude Azimuth Time Altitude Azimuth Time Altitude Azimuth
Cosmos 1110 Rocket 4.3 18:28:11 10° NNW 18:33:20 70° WSW 18:38:28 10° S
H-2A R/B 3.8 18:32:19 10° SSW 18:36:52 34° W 18:41:23 10° NNW
SAR-Lupe-4 3.5 18:33:19 10° NNE 18:36:57 86° ESE 18:40:32 10° SSW
Cosmos 2034 Rocket 4.1 18:32:04 10° SSE 18:38:05 56° E 18:44:12 10° NNE
CENTAUR R/B 3.6 18:30:10 10° NW 18:38:17 71° WSW 18:47:08 10° SSE
Cosmos 1331 Rocket 4.4 18:34:07 10° NNW 18:39:18 69° WSW 18:44:28 10° S
ATLAS 3B R/B 3.6 18:36:17 10° NNW 18:42:45 39° NE 18:49:28 10° ESE
BREEZE-M DEB (TANK) 3.4 18:40:04 10° SW 18:43:37 75° SE 18:55:12 10° ENE
SL-8 R/B 4.0 18:40:00 10° W 18:44:50 70° N 18:49:40 10° E
Nadezhda 4 Rocket 4.0 18:38:47 10° N 18:45:07 69° E 18:51:21 10° SSE
Cosmos 1825 Rocket 3.5 18:41:52 10° N 18:46:14 69° E 18:50:36 10° SSE
Cosmos 2333 Rocket 2.8 18:40:45 10° NNW 18:46:17 44° NE 18:51:45 10° SE
Resurs 1-3 4.4 18:42:20 10° SE 18:46:19 35° ENE 18:50:19 10° N
Cosmos 1464 Rocket 4.1 18:40:56 10° S 18:47:15 90° S 18:53:32 10° N
USA 215 3.8 18:40:59 10° E 18:47:16 53° NNE 18:53:35 10° NW
Cosmos 2058 4.3 18:44:12 10° NNE 18:47:30 22° ENE 18:50:36 11° ESE
Cosmos 2322 Rocket 2.9 18:42:16 10° NW 18:47:50 56° WSW 18:53:23 10° S
RESURS DK-1 4.0 18:46:01 10° SE 18:48:23 15° ESE 18:50:47 10° ENE
COSMOS 2487 3.4 18:46:02 10° SSE 18:48:51 25° ESE 18:51:41 10° NE
Meteor 2-10 Rocket 3.8 18:45:03 10° SSE 18:49:58 46° E 18:55:07 10° NNE
Cosmos 1892 3.0 18:48:32 10° N 18:52:12 47° ENE 18:55:52 10° SSE
Cosmos 1758 Rocket 3.9 18:49:29 10° NNW 18:53:56 70° W 18:58:23 10° S
Cosmos 2344 4.0 18:47:41 10° S 18:54:22 35° ESE 19:01:07 10° NE
Cosmos 1441 Rocket 4.3 18:52:50 10° NNW 18:56:40 49° W 19:00:29 10° S
Cosmos 2322 3.9 18:53:50 10° NNW 18:59:25 56° ENE 19:04:34 12° SE
Cosmos 2026 Rocket 4.3 18:56:09 10° N 19:01:57 45° ENE 19:07:45 10° SSE
Cosmos 1825 2.9 19:07:12 10° N 19:10:43 35° ENE 19:13:04 18° SE
BREEZE-M DEB (TANK) 3.3 19:09:26 10° WSW 19:12:59 87° SSE 19:25:02 10° ENE
CZ-4C R/B 2.9 19:09:29 10° WSW 19:14:24 57° NW 19:20:24 10° NE
Cosmos 1634 Rocket 4.2 19:09:25 10° SSE 19:15:27 51° E 19:21:28 10° NNE
IGS 5A 4.3 19:14:23 18° ESE 19:16:52 34° ENE 19:20:38 10° N
ATLAS 5 CENTAUR R/B 0.3 19:16:18 10° NW 19:18:11 83° SW 19:19:04 29° SE
SL-16 R/B 4.4 19:16:51 10° N 19:19:19 13° NE 19:21:45 10° ENE
Cosmos 405 2.8 19:19:45 10° S 19:23:11 72° E 19:26:39 10° NNE
ARIANE 5 R/B 4.1 19:23:11 17° E 19:24:53 21° ENE 19:28:10 10° NNE
Cosmos 1606 Rocket 4.2 19:21:12 10° SSW 19:25:31 57° WNW 19:29:50 10° N
COSMOS 2428 2.9 19:20:45 10° NNW 19:26:29 62° ENE 19:30:26 20° SE
Cosmos 2251 Rocket 4.0 19:22:58 10° S 19:27:57 40° ESE 19:32:56 10° NE
SPOT 3 Rocket 3.7 19:24:58 17° SE 19:28:51 57° ENE 19:33:56 10° N
Cosmos 2098 Rocket 4.4 19:22:38 10° N 19:29:33 89° WSW 19:37:00 10° S
Cosmos 2360 Rocket 3.2 19:24:50 10° NW 19:30:11 45° WSW 19:35:31 10° S
Cosmos 2333 4.4 19:27:59 10° NNW 19:33:46 74° WSW 19:38:35 15° SSE
Cosmos 389 Rocket 3.7 19:34:30 23° E 19:34:30 23° E 19:37:06 10° NE
NOSS 3-4 (A) 3.8 19:28:28 10° SW 19:34:18 67° NW 19:40:38 10° NE
Cosmos 1408 2.8 19:30:50 10° NNW 19:34:23 67° W 19:37:20 14° S
NOSS 3-4 (C) 3.8 19:28:35 10° SW 19:34:25 68° NW 19:40:44 10° NE
Cosmos 482 Debris 3.8 19:32:06 10° W 19:34:34 45° NNW 19:35:22 27° NE
Cosmos 1726 Rocket 4.3 19:32:31 10° SSW 19:36:50 56° WNW 19:41:09 10° N
BREEZE-M DEB (TANK) 2.3 19:34:50 10° WNW 19:37:13 46° N 19:37:59 31° ENE
Cosmos 44 3.6 19:38:08 10° SSW 19:42:59 48° ESE 19:48:08 10° NE
Lacrosse 5 rocket 3.3 19:39:44 10° W 19:43:20 28° NNW 19:47:07 10° NE
SPOT 5 4.2 19:42:59 19° E 19:44:09 21° ENE 19:47:39 10° NNE
OBJECT-B 3.0 19:43:06 10° SSW 19:45:45 24° W 19:48:27 10° NW
USA 245 4.0 19:45:04 31° ESE 19:46:11 37° ENE 19:49:33 10° N
Ariane Rocket 3.7 19:42:32 10° S 19:47:28 53° W 19:52:25 10° NNW
ATLAS 2AS CENTAUR R/B 3.1 19:40:00 10° SW 19:47:56 85° NW 19:55:46 10° NE
Cosmos 2219 Rocket 2.3 19:42:52 10° NNW 19:48:36 80° WSW 19:52:18 23° SSE
Cosmos 1455 2.6 19:49:23 10° SSW 19:53:06 60° W 19:56:49 10° N
Cosmos 2058 Rocket 3.7 19:53:16 10° SSW 19:57:33 55° WNW 20:01:50 10° N
Cosmos-2242 4.2 20:02:01 26° ENE 20:02:01 26° ENE 20:05:05 10° NNE
Cosmos 405 Rocket 2.7 19:57:53 10° N 20:01:56 78° E 20:03:02 46° SSE
ATLAS 5 CENTAUR R/B 4.4 19:59:18 10° WNW 20:02:21 19° NNW 20:05:41 10° NNE
Terra 3.1 20:02:39 23° ENE 20:03:27 24° ENE 20:07:15 10° N
Exosat Rocket 3.9 19:59:12 10° NNW 20:05:55 75° WSW 20:08:46 29° S
Resurs 01 Rocket 2.0 20:03:36 24° S 20:06:13 61° W 20:10:39 10° NNW
IRIDIUM 104 4.2 20:07:43 27° S 20:10:35 80° E 20:15:49 10° N
Cosmos 2237 Rocket 2.5 20:06:47 10° NNW 20:12:20 54° ENE 20:14:10 38° ESE
SL-24 R/B - RUBIN 2 4.5 20:06:55 10° SW 20:13:37 89° NW 20:20:00 10° NE
Cosmos 1818 3.4 20:10:17 10° SSW 20:15:42 77° ESE 20:21:12 10° NE
Cosmos 1812 Rocket 3.5 20:15:15 51° SSE 20:16:12 68° E 20:20:39 10° NNE
CZ-2C R/B 3.6 20:14:31 10° NNE 20:19:00 84° WNW 20:21:14 29° SSW
IRIDIUM 114 4.3 20:16:50 27° S 20:19:44 86° W 20:24:59 10° N
Cosmos 614 Rocket 3.8 20:17:22 19° SSW 20:21:05 81° ESE 20:26:14 10° NNE
Orbus 7S? 4.1 20:21:08 10° WSW 20:24:08 55° NNW 20:30:02 10° NE
Cosmos 2058 4.3 20:20:40 10° NNW 20:24:30 35° W 20:26:49 20° SW
Cosmos 1076 Rocket 3.7 20:20:35 10° NNW 20:24:56 68° W 20:26:06 46° SSW
RESURS DK-1 2.9 20:21:53 10° SW 20:25:56 57° WNW 20:30:02 10° NNE
Meteor 2-21 4.3 20:20:52 10° N 20:26:58 82° E 20:29:14 41° SSE
SL-8 R/B 3.6 20:22:39 10° WNW 20:27:28 68° SSW 20:28:05 60° SSE
Cosmos 2151 2.9 20:23:08 10° N 20:27:28 70° E 20:27:42 68° ESE
Cosmos 2227 Rocket 3.0 20:29:01 33° E 20:29:01 33° E 20:33:11 10° NE
Cosmos 1633 2.7 20:24:30 10° N 20:27:40 63° NNE 20:27:40 63° NNE
NOSS 0 Rocket 3.9 20:22:05 10° NNW 20:28:20 81° WSW 20:30:38 41° SSE
IRIDIUM 103 4.5 20:25:58 27° SSW 20:28:53 72° W 20:34:07 10° N
Cosmos 909 Rocket 4.0 20:23:37 10° SW 20:29:59 85° NW 20:36:28 10° NE
USA 215 3.3 20:27:34 38° SSE 20:30:11 67° SW 20:36:43 10° NW
Cosmos 2333 Rocket 3.6 20:25:19 10° NW 20:30:24 33° WSW 20:33:50 18° SSW
Cosmos 407 Rocket 3.5 20:30:56 54° ESE 20:31:04 55° ESE 20:36:07 10° NNE
CARTOSAT-1 3.4 20:31:16 72° ESE 20:31:34 76° ENE 20:35:55 10° N
ATLAS 3B R/B 3.0 20:26:55 10° NW 20:33:52 64° WSW 20:36:56 36° S
Cosmos 2219 3.4 20:35:30 46° E 20:35:30 46° E 20:40:33 10° NE
ERS-1 Rocket 2.9 20:35:04 58° ESE 20:35:46 66° ENE 20:40:46 10° N
Cosmos 2297 Rocket 2.3 20:35:35 52° ESE 20:35:46 52° ESE 20:41:15 10° NE
Cosmos 2279 Rocket 4.3 20:32:55 13° SSW 20:38:27 64° WNW 20:44:37 10° N
BREEZE-M DEB (TANK) 3.6 20:39:00 10° WNW 20:49:45 71° N 20:50:35 55° ENE
Cosmos 1023 Rocket 4.2 20:55:36 80° ESE 20:55:38 80° ESE 21:00:45 10° NNE
Spot 2 Rocket 4.0 20:56:25 45° SW 20:57:30 54° W 21:02:30 10° NNW
Genesis I 4.2 20:56:19 10° NNW 20:59:26 42° N 20:59:26 42° N
Timation 2 Rocket 3.9 20:59:56 59° SSE 21:00:52 67° ESE 21:07:11 10° NNE
ARIANE 5 R/B 3.3 21:00:43 45° WSW 21:01:03 46° W 21:05:18 10° NNW
Cosmos 1140 Rocket 3.3 21:01:06 86° SE 21:01:10 86° ESE 21:06:20 10° NNE
Meteor 2-3 Rocket 3.8 20:57:07 10° NNW 21:02:53 74° W 21:03:54 59° SSW
Cosmos 2266 Rocket 4.1 20:57:39 10° NNW 21:04:03 72° W 21:05:48 49° SSW
Meteor 1-27 4.1 21:04:10 73° SSE 21:04:41 80° E 21:10:30 10° NNE
SL-16 R/B 2.5 20:59:17 10° NNW 21:04:52 51° ENE 21:05:17 50° ENE
Cosmos 1980 3.9 21:01:27 10° NNW 21:07:01 58° WSW 21:07:47 53° SW
Cosmos 2344 4.2 21:01:04 10° WSW 21:08:20 55° NW 21:16:20 10° NE
COSMOS 2455 4.0 21:12:24 28° ENE 21:12:24 28° ENE 21:15:37 10° NE
Meteor 2-8 Rocket 4.3 21:09:41 70° SE 21:10:16 76° E 21:16:26 10° NNE
SeaSat 1 4.0 21:09:05 10° NE 21:11:18 25° NE 21:11:18 25° NE
SPOT 5 3.5 21:22:12 46° W 21:22:12 46° W 21:26:24 10° NNW
Cosmos 1190 Rocket 4.1 21:22:31 73° W 21:22:38 73° WNW 21:27:53 10° NNE
Lacrosse 5 rocket 3.9 21:20:23 10° NW 21:23:37 20° N 21:26:18 13° NE
Cosmos 1244 Rocket 4.4 21:29:22 10° N 21:35:47 80° E 21:35:57 80° ESE
Cosmos 676 Rocket 4.4 21:40:36 58° NNE 21:40:36 58° NNE 21:44:46 10° NNE
Terra 2.7 21:41:32 42° WNW 21:41:32 42° WNW 21:45:32 10° NNW
Cosmos 1763 Rocket 4.0 21:38:21 10° NNW 21:42:27 53° NNE 21:42:27 53° NNE
SL-08 R/B 4.5 21:38:16 10° N 21:44:10 68° ENE 21:44:10 68° ENE
Meteor 2-15 Rocket 4.4 21:49:02 79° NNE 21:49:02 79° NNE 21:54:45 10° N
Cosmos 1553 Rocket 4.1 21:49:49 62° NE 21:49:49 62° NE 21:55:08 10° NNE
Cosmos 2237 Rocket 3.7 21:51:29 10° NW 21:56:00 26° WSW 21:56:00 26° WSW
Cosmos 2221 4.3 22:05:40 30° N 22:05:40 30° N 22:07:54 10° N
SL-08 ROCKET BODY 4.4 21:58:35 10° N 22:04:12 76° NNW 22:04:12 76° NNW
ALOS 2 4.4 22:08:22 28° NNE 22:08:22 28° NNE 22:10:44 10° N
Cosmos 2082 4.1 22:08:37 60° N 22:08:37 60° N 22:13:18 10° NNE
NOSS 3-1 (C) 4.1 22:00:38 10° NW 22:08:02 71° NE 22:09:24 61° E
Cosmos 540 Rocket 4.3 22:03:41 10° NNW 22:07:29 45° N 22:07:29 45° N
Cosmos 2227 Rocket 3.3 22:10:45 35° W 22:12:03 41° NW 22:17:24 10° NNE
Cosmos 2263 Rocket 3.7 22:16:27 26° NE 22:16:27 26° NE 22:19:06 10° NE
Cosmos 1603 4.4 22:13:09 10° NNW 22:18:04 49° NNE 22:18:04 49° NNE
Cosmos 2297 Rocket 3.8 22:17:17 20° W 22:20:05 30° NW 22:25:03 10° N
Aureole 1 Rocket 4.4 22:47:56 51° N 22:47:56 51° N 22:51:36 10° NNE
SL-16 R/B 3.9 22:43:57 10° NW 22:47:10 24° WNW 22:47:10 24° WNW
SeaSat 1 3.9 22:46:48 10° NNE 22:51:05 33° NW 22:51:05 33° NW
Cosmos 1745 Rocket 4.5 22:45:03 10° NNW 22:50:30 53° WNW 22:50:30 53° WNW
COSMOS 2455 3.7 22:55:28 43° WNW 22:55:59 44° NW 23:01:44 10° NNE
Cosmos 1709 Rocket 4.2 22:51:09 10° N 22:56:25 65° NNW 22:56:25 65° NNW
Lacrosse 5 rocket 3.7 22:59:49 10° NW 23:01:54 23° NNW 23:01:54 23° NNW
USA 229 DEB 3.9 23:06:38 10° NW 23:13:19 72° WNW 23:13:19 72° WNW
USA 229 3.9 23:06:44 10° NW 23:13:26 73° WNW 23:13:26 73° WNW
Cosmos 1943 4.3 23:15:05 10° NNW 23:18:33 37° NW 23:18:33 37° NW
USA 281 3.2 23:28:00 77° NNW 23:28:00 77° NNW 23:34:04 10° NNW
NOSS 3-1 (A) 4.1 23:24:16 10° NW 23:31:15 68° W 23:31:15 68° W
Cosmos 2154 Rocket 4.2 23:46:07 10° N 23:52:03 67° NE 23:52:03 67° NE
SL-4 R/B 4.3 23:55:06 26° NE 23:55:06 26° NE 23:57:23 10° ENE
